Change the Weather History Date:

Wednesday, October 24, 2012

  Actual Average Record
Temperature  
Mean Temperature 52 °F -  
Max Temperature 57 °F - - ()
Min Temperature 46 °F - - ()
Degree Days  
Heating Degree Days 12    
Growing Degree Days 2 (Base 50)    
Moisture  
Dew Point 53 °F    
Average Humidity 96    
Maximum Humidity 100    
Minimum Humidity 93    
Precipitation  
Precipitation 0.30 in - - ()
Sea Level Pressure  
Sea Level Pressure 29.80 in    
Wind  
Wind Speed 3 mph (NNE)    
Max Wind Speed 16 mph    
Max Gust Speed 21 mph    
Visibility 4 miles    
Events Fog , Rain    
T = Trace of Precipitation, MM = Missing Value Source: NWS Daily Summary

Daily Weather History Graph

Daily Weather History Graph

Search for Another Location

Airport or City:

Trip Planner

Search our weather history database for the weather conditions in past years. The results will help you decide how hot, cold, wet, or windy it might be!

Date:

Astronomy

Oct. 24, 2012 Rise Set
Actual Time 7:39 AM CDT 6:07 PM CDT
Civil Twilight 7:08 AM CDT 6:37 PM CDT
Nautical Twilight 6:33 AM CDT 7:12 PM CDT
Astronomical Twilight 5:59 AM CDT 7:47 PM CDT
Moon 3:36 PM CDT (10/24) 2:20 AM CDT (10/24)
Length of Visible Light 11h 29m
Length of Day
10h 28m
Waxing Gibbous, 76% of the Moon is Illuminated
Oct 24
Waxing Gibbous
Oct 29
Full
Nov 6
Last Quarter
Nov 13
New
Nov 20
First Quarter

Hourly Weather History & Observations

Time (CDT) Temp. Windchill Dew Point Humidity Pressure Visibility Wind Dir Wind Speed Gust Speed Precip Events Conditions
12:15 AM 55.4 °F - 55.4 °F 100% 29.79 in 0.5 mi Calm Calm - N/A Fog Fog
12:35 AM 55.4 °F - 55.4 °F 100% 29.80 in 0.5 mi Calm Calm - N/A Fog Fog
12:55 AM 55.4 °F - 55.4 °F 100% 29.80 in 0.5 mi Calm Calm - N/A Fog Fog
1:15 AM 57.2 °F - 55.4 °F 94% 29.80 in 0.5 mi Calm Calm - N/A Fog Fog
1:35 AM 57.2 °F - 55.4 °F 94% 29.79 in 0.5 mi Calm Calm - N/A Fog Fog
1:55 AM 55.4 °F - 55.4 °F 100% 29.80 in 0.2 mi Calm Calm - N/A Fog Fog
2:15 AM 55.4 °F - 55.4 °F 100% 29.80 in 0.2 mi Calm Calm - N/A Fog Fog
2:35 AM 57.2 °F - 55.4 °F 94% 29.80 in 4.0 mi WSW 3.5 mph - N/A   Overcast
2:55 AM 57.2 °F - 55.4 °F 94% 29.81 in 4.0 mi WSW 3.5 mph - N/A   Overcast
3:15 AM 57.2 °F - 55.4 °F 94% 29.81 in 4.0 mi West 3.5 mph - N/A   Overcast
3:35 AM 57.2 °F - 55.4 °F 94% 29.82 in 4.0 mi WNW 3.5 mph - N/A   Overcast
3:55 AM 57.2 °F - 55.4 °F 94% 29.81 in 4.0 mi West 3.5 mph - N/A   Overcast
4:15 AM 55.4 °F - 53.6 °F 94% 29.81 in 3.0 mi Calm Calm - N/A   Mostly Cloudy
4:35 AM 53.6 °F - 53.6 °F 100% 29.81 in 2.0 mi Calm Calm - N/A   Overcast
4:55 AM 55.4 °F - 53.6 °F 94% 29.81 in 0.8 mi Calm Calm - N/A   Overcast
5:15 AM 55.4 °F - 53.6 °F 94% 29.80 in 1.8 mi Calm Calm - N/A   Overcast
5:35 AM 53.6 °F - 51.8 °F 94% 29.80 in 0.8 mi Calm Calm - N/A   Overcast
5:55 AM 53.6 °F - 53.6 °F 100% 29.81 in 1.0 mi Calm Calm - N/A   Overcast
6:15 AM 53.6 °F - 53.6 °F 100% 29.83 in 1.8 mi Calm Calm - N/A   Overcast
6:35 AM 55.4 °F - 53.6 °F 94% 29.85 in 2.0 mi Calm Calm - N/A   Overcast
6:55 AM 55.4 °F - 53.6 °F 94% 29.85 in 2.0 mi Calm Calm - N/A   Overcast
7:15 AM 55.4 °F - 53.6 °F 94% 29.85 in 1.8 mi Calm Calm - N/A   Overcast
7:55 AM 55.4 °F - 53.6 °F 94% 29.85 in 0.5 mi Calm Calm - N/A Fog Fog
8:15 AM 53.6 °F - 53.6 °F 100% 29.84 in 0.2 mi Calm Calm - N/A Fog Fog
8:35 AM 55.4 °F - 53.6 °F 94% 29.85 in 0.2 mi Calm Calm - N/A Fog Fog
8:55 AM 55.4 °F - 53.6 °F 94% 29.87 in 0.2 mi Calm Calm - N/A Fog Fog
9:15 AM 55.4 °F - 55.4 °F 100% 29.86 in 0.2 mi Calm Calm - N/A Fog Fog
9:35 AM 55.4 °F - 55.4 °F 100% 29.87 in 0.2 mi Calm Calm - N/A Fog Fog
9:55 AM 55.4 °F - 55.4 °F 100% 29.86 in 0.8 mi North 4.6 mph - N/A   Overcast
10:15 AM 55.4 °F - 55.4 °F 100% 29.85 in 0.8 mi North 4.6 mph - N/A   Overcast
10:35 AM 55.4 °F - 53.6 °F 94% 29.86 in 1.5 mi NNE 4.6 mph - N/A   Overcast
10:55 AM 55.4 °F - 53.6 °F 94% 29.85 in 1.5 mi NE 8.1 mph - N/A Rain Light Rain
11:15 AM 53.6 °F - 53.6 °F 100% 29.85 in 2.0 mi NE 10.4 mph - N/A   Overcast
11:35 AM 53.6 °F - 53.6 °F 100% 29.84 in 7.0 mi ENE 8.1 mph - N/A   Overcast
11:55 AM 55.4 °F - 53.6 °F 94% 29.83 in 10.0 mi NE 9.2 mph - N/A   Overcast
12:15 PM 55.4 °F - 53.6 °F 94% 29.82 in 10.0 mi ENE 8.1 mph - N/A   Overcast
12:35 PM 55.4 °F - 53.6 °F 94% 29.82 in 10.0 mi ENE 6.9 mph - N/A   Overcast
12:55 PM 55.4 °F - 53.6 °F 94% 29.83 in 10.0 mi NE 6.9 mph - N/A   Overcast
1:15 PM 55.4 °F - 53.6 °F 94% 29.81 in 10.0 mi ENE 5.8 mph - N/A   Overcast
1:35 PM 55.4 °F - 53.6 °F 94% 29.80 in 10.0 mi ENE 6.9 mph - N/A   Overcast
2:15 PM 55.4 °F - 53.6 °F 94% 29.78 in 7.0 mi NE 5.8 mph - N/A Rain Rain
2:35 PM 55.4 °F - 53.6 °F 94% 29.79 in 4.0 mi NNE 3.5 mph - 0.01 in Rain Light Rain
2:55 PM 55.4 °F - 53.6 °F 94% 29.78 in 4.0 mi ENE 4.6 mph - 0.02 in Rain Rain
3:15 PM 53.6 °F - 53.6 °F 100% 29.78 in 3.0 mi NNE 8.1 mph - 0.01 in Rain Rain
3:35 PM 53.6 °F - 53.6 °F 100% 29.77 in 3.0 mi NNE 6.9 mph - 0.02 in   Drizzle
4:15 PM 53.6 °F - 53.6 °F 100% 29.76 in 2.5 mi NE 3.5 mph - 0.03 in Rain Rain
4:35 PM 53.6 °F - 53.6 °F 100% 29.75 in 3.0 mi NE 5.8 mph - 0.04 in Rain Rain
4:55 PM 53.6 °F - 53.6 °F 100% 29.75 in 3.0 mi NNE 4.6 mph - 0.04 in   Drizzle
5:15 PM 53.6 °F - 51.8 °F 94% 29.75 in 2.0 mi North 10.4 mph - 0.12 in Rain Rain
5:35 PM 53.6 °F - 51.8 °F 94% 29.76 in 4.0 mi North 10.4 mph - 0.14 in Rain Rain
5:55 PM 53.6 °F - 51.8 °F 94% 29.75 in 5.0 mi NNE 12.7 mph - 0.15 in Rain Rain
6:15 PM 53.6 °F - 51.8 °F 94% 29.75 in 5.0 mi NNE 12.7 mph 17.3 mph 0.02 in Rain Rain
6:35 PM 51.8 °F - 51.8 °F 100% 29.75 in 7.0 mi North 10.4 mph 18.4 mph 0.03 in   Drizzle
6:55 PM 51.8 °F - 50.0 °F 94% 29.76 in 10.0 mi North 16.1 mph 20.7 mph 0.03 in Rain Light Rain
7:15 PM 51.8 °F - 50.0 °F 94% 29.77 in 10.0 mi NNE 11.5 mph 17.3 mph N/A   Drizzle
7:35 PM 50.0 °F - 50.0 °F 100% 29.78 in 10.0 mi North 9.2 mph - N/A   Overcast
7:55 PM 50.0 °F - 48.2 °F 94% 29.78 in 10.0 mi North 9.2 mph - N/A   Drizzle
8:15 PM 50.0 °F - 48.2 °F 94% 29.78 in 7.0 mi NNE 9.2 mph - 0.01 in   Drizzle
8:35 PM 50.0 °F - 48.2 °F 94% 29.78 in 5.0 mi North 6.9 mph - 0.01 in   Light Drizzle
8:55 PM 50.0 °F - 48.2 °F 94% 29.78 in 7.0 mi NNE 6.9 mph - 0.01 in   Overcast
9:15 PM 50.0 °F - 48.2 °F 94% 29.78 in 7.0 mi NNE 5.8 mph - N/A Rain Rain
9:35 PM 50.0 °F - 48.2 °F 94% 29.78 in 7.0 mi NNE 4.6 mph - 0.01 in Rain Rain
9:55 PM 50.0 °F - 48.2 °F 94% 29.78 in 7.0 mi NNE 8.1 mph - 0.02 in   Drizzle
10:35 PM 48.2 °F - 48.2 °F 100% 29.77 in 10.0 mi NNE 6.9 mph - 0.01 in Rain Light Rain
10:55 PM 48.2 °F - 46.4 °F 93% 29.77 in 10.0 mi NNE 5.8 mph - 0.01 in   Light Drizzle
11:15 PM 48.2 °F - 46.4 °F 93% 29.77 in 10.0 mi NNE 6.9 mph - N/A   Overcast
11:55 PM 46.4 °F 41.9 °F 46.4 °F 100% 29.77 in 5.0 mi NNE 9.2 mph - N/A   Overcast